BELINTERSAT-1

Last updated on Sun Oct 06 2024 00:02:40 GMT+0000 (Coordinated Universal Time)

1 41238U 16001A 24279.55114502 .00000117 00000+0 00000+0 0 9990 2 41238 0.0457 357.9204 0001285 224.6626 42.0378 1.00273473 32028
UTC large
Height (km)
Speed (km/s)
/
Latitude / Longitude
Inclination (degrees)
Orbital Period (minutes)
Azimuth
Elevation
Range (km)
Doppler Factor

Next 0 passes for location: London (51.5072 / 0.1276)

Sorry there are no passes over London.